Location: ?????
(42.2640°N, 43.4211°E)
Time: 14:55:13
(UTC+00:00)

Cosmos 1340 Rocket - Pass Details

Date: 07 August 2020
Orbit: 529 x 558 km, 81.2° (Epoch: 19 September)

Event Time Altitude Azimuth Distance (km) Brightness Sun altitude
Exits shadow 00:19:47 38° 223° (SW) 842 3.2 -17.2°
Maximum altitude 00:21:02 57° 282° (WNW) 644 2.9 -17.0°
Drops below altitude 10° 00:24:58 10° 2° (N) 1,810 6.1 -16.5°
Sets 00:27:10 0° 6° (N) 2,701 7.1 -16.2°
